When you browse on this site, cookies collect data to enhance your experience and personalize the content and advertising you see.
Visit our Privacy Policy to learn more. By continuing to use the site, you agree to this use of cookies and data.
  • Em Portugal
  • Lista de países
  • Para 7 dias
  • Temperatura da água
  • Mapas de satélite
  • Mapa do tempo
  • Widgets de tempo
  • user-avatar
    Iniciar Sessão

    Previsão horária em Zakrety

    Hoje, 18 Fevereiro, Segunda-feira

    Tempo Temperatura Precipitação Vento Pressão Humidade
    00:00 +5°C° 0 mm 1 m/s 758 mmHg 93%
    01:00 +4°C° 0 mm 1 m/s 758 mmHg 94%
    02:00 +3°C° 0 mm 0 m/s 758 mmHg 95%
    03:00 +2°C° 0 mm 0 m/s 758 mmHg 95%
    04:00 +2°C° 0 mm 0 m/s 758 mmHg 96%
    05:00 +3°C° 0 mm 1 m/s 758 mmHg 95%
    06:00 +3°C° 0 mm 1 m/s 758 mmHg 95%
    07:00 +3°C° 0 mm 1 m/s 758 mmHg 95%
    08:00 +4°C° 0 mm 1 m/s 758 mmHg 92%
    09:00 +4°C° 0 mm 2 m/s 758 mmHg 89%
    10:00 +5°C° 0 mm 2 m/s 758 mmHg 85%
    11:00 +5°C° 0 mm 3 m/s 757 mmHg 81%
    12:00 +8°C° 0 mm 3 m/s 757 mmHg 77%
    13:00 +9°C° 0 mm 3 m/s 757 mmHg 73%
    14:00 +8°C° 0 mm 3 m/s 756 mmHg 75%
    15:00 +8°C° 0 mm 3 m/s 756 mmHg 77%
    16:00 +8°C° 0 mm 3 m/s 756 mmHg 79%
    17:00 +7°C° 0 mm 3 m/s 755 mmHg 82%
    18:00 +5°C° 0 mm 3 m/s 755 mmHg 86%
    19:00 +4°C° 0 mm 4 m/s 755 mmHg 90%
    20:00 +4°C° 0 mm 4 m/s 754 mmHg 90%
    21:00 +4°C° 0 mm 4 m/s 754 mmHg 89%
    22:00 +3°C° 0 mm 4 m/s 754 mmHg 89%
    23:00 +3°C° 0 mm 3 m/s 753 mmHg 88%

    Amanhã, 19 Fevereiro, Terça-feira

    Tempo Temperatura Precipitação Vento Pressão Humidade
    00:00 +2°C° 0 mm 3 m/s 753 mmHg 87%
    01:00 +2°C° 0 mm 3 m/s 753 mmHg 86%
    02:00 +2°C° 0 mm 3 m/s 752 mmHg 85%
    03:00 +1°C° 0 mm 3 m/s 752 mmHg 84%
    04:00 +1°C° 0 mm 3 m/s 751 mmHg 83%
    05:00 0°C° 0 mm 4 m/s 751 mmHg 83%
    06:00 0°C° 0 mm 4 m/s 750 mmHg 82%
    07:00 0°C° 0 mm 4 m/s 750 mmHg 81%
    08:00 +1°C° 0 mm 5 m/s 750 mmHg 77%
    09:00 +2°C° 0 mm 5 m/s 749 mmHg 73%
    10:00 +3°C° 0 mm 6 m/s 749 mmHg 69%
    11:00 +4°C° 0 mm 6 m/s 749 mmHg 67%
    12:00 +5°C° 0 mm 6 m/s 749 mmHg 66%
    13:00 +7°C° 0 mm 6 m/s 748 mmHg 64%
    14:00 +7°C° 0 mm 6 m/s 748 mmHg 68%
    15:00 +7°C° 0 mm 5 m/s 748 mmHg 72%
    16:00 +7°C° 0 mm 4 m/s 748 mmHg 75%
    17:00 +6°C° 0.3 mm 4 m/s 748 mmHg 79%
    18:00 +6°C° 0.3 mm 4 m/s 748 mmHg 83%
    19:00 +5°C° 0.3 mm 4 m/s 748 mmHg 86%
    20:00 +4°C° 0 mm 4 m/s 748 mmHg 87%
    21:00 +4°C° 0 mm 4 m/s 748 mmHg 87%
    22:00 +3°C° 0 mm 4 m/s 748 mmHg 88%
    23:00 +3°C° 0 mm 4 m/s 749 mmHg 87%

    Depois de amanhã, 20 Fevereiro, Quarta-feira

    Tempo Temperatura Precipitação Vento Pressão Humidade
    00:00 +3°C° 0 mm 5 m/s 749 mmHg 86%
    01:00 +3°C° 0 mm 5 m/s 749 mmHg 85%
    02:00 +2°C° 0 mm 5 m/s 749 mmHg 85%
    03:00 +2°C° 0 mm 5 m/s 749 mmHg 84%
    04:00 +2°C° 0 mm 5 m/s 749 mmHg 84%
    05:00 +2°C° 0.1 mm 5 m/s 749 mmHg 84%
    06:00 +2°C° 0.1 mm 5 m/s 750 mmHg 84%
    07:00 +2°C° 0.1 mm 5 m/s 750 mmHg 84%
    08:00 +2°C° 0.1 mm 6 m/s 750 mmHg 81%
    09:00 +3°C° 0.1 mm 6 m/s 750 mmHg 78%
    10:00 +3°C° 0.1 mm 7 m/s 751 mmHg 75%
    11:00 +3°C° 0 mm 7 m/s 751 mmHg 72%
    12:00 +4°C° 0 mm 7 m/s 751 mmHg 70%
    13:00 +4°C° 0 mm 7 m/s 752 mmHg 67%
    14:00 +4°C° 0 mm 6 m/s 752 mmHg 69%
    15:00 +4°C° 0 mm 6 m/s 752 mmHg 70%
    16:00 +4°C° 0 mm 6 m/s 752 mmHg 72%
    17:00 +3°C° 0 mm 5 m/s 753 mmHg 75%
    18:00 +3°C° 0 mm 5 m/s 753 mmHg 78%
    19:00 +3°C° 0 mm 4 m/s 753 mmHg 82%
    20:00 +3°C° 0 mm 4 m/s 754 mmHg 84%
    21:00 +3°C° 0 mm 3 m/s 754 mmHg 86%
    22:00 +3°C° 0 mm 3 m/s 754 mmHg 88%
    23:00 +3°C° 0.1 mm 3 m/s 754 mmHg 90%

    21 Fevereiro, Quinta-feira

    Tempo Temperatura Precipitação Vento Pressão Humidade
    00:00 +3°C° 0.1 mm 3 m/s 754 mmHg 92%
    01:00 +3°C° 0.1 mm 3 m/s 754 mmHg 94%
    02:00 +3°C° 0.6 mm 3 m/s 754 mmHg 94%
    03:00 +4°C° 0.6 mm 3 m/s 753 mmHg 94%
    04:00 +4°C° 0.6 mm 4 m/s 753 mmHg 93%
    05:00 +4°C° 0.4 mm 4 m/s 753 mmHg 93%
    06:00 +4°C° 0.4 mm 4 m/s 753 mmHg 93%
    07:00 +4°C° 0.4 mm 4 m/s 753 mmHg 93%
    08:00 +4°C° 0.9 mm 4 m/s 753 mmHg 93%
    09:00 +4°C° 0.9 mm 3 m/s 753 mmHg 93%
    10:00 +4°C° 0.9 mm 3 m/s 753 mmHg 94%
    11:00 +4°C° 0.3 mm 3 m/s 753 mmHg 92%
    12:00 +5°C° 0.3 mm 3 m/s 754 mmHg 91%
    13:00 +5°C° 0.3 mm 3 m/s 754 mmHg 89%
    14:00 +6°C° 0 mm 2 m/s 754 mmHg 90%
    15:00 +6°C° 0 mm 2 m/s 755 mmHg 91%
    16:00 +6°C° 0 mm 2 m/s 755 mmHg 92%
    17:00 +5°C° 0.1 mm 2 m/s 756 mmHg 91%
    18:00 +3°C° 0.1 mm 3 m/s 757 mmHg 90%
    19:00 +2°C° 0.1 mm 3 m/s 758 mmHg 89%
    20:00 +1°C° 0 mm 3 m/s 758 mmHg 86%
    21:00 +1°C° 0 mm 3 m/s 759 mmHg 82%
    22:00 0°C° 0 mm 3 m/s 760 mmHg 78%
    23:00 -1°C° 0 mm 3 m/s 761 mmHg 76%

    22 Fevereiro, Sexta-feira

    Tempo Temperatura Precipitação Vento Pressão Humidade
    00:00 -1°C° 0 mm 2 m/s 761 mmHg 74%
    01:00 -2°C° 0 mm 2 m/s 762 mmHg 72%
    02:00 -2°C° 0 mm 2 m/s 763 mmHg 70%
    03:00 -2°C° 0 mm 2 m/s 763 mmHg 67%
    04:00 -2°C° 0 mm 3 m/s 764 mmHg 65%
    05:00 -3°C° 0 mm 2 m/s 765 mmHg 63%
    06:00 -3°C° 0 mm 2 m/s 766 mmHg 62%
    07:00 -3°C° 0 mm 2 m/s 766 mmHg 61%
    08:00 -2°C° 0 mm 2 m/s 767 mmHg 56%
    09:00 -1°C° 0 mm 2 m/s 768 mmHg 50%
    10:00 -1°C° 0 mm 3 m/s 769 mmHg 45%
    11:00 +1°C° 0 mm 2 m/s 769 mmHg 41%
    12:00 +2°C° 0 mm 2 m/s 769 mmHg 38%
    13:00 +3°C° 0 mm 2 m/s 770 mmHg 34%
    14:00 +4°C° 0 mm 1 m/s 770 mmHg 37%
    15:00 +4°C° 0 mm 1 m/s 770 mmHg 40%
    16:00 +3°C° 0 mm 0 m/s 770 mmHg 42%
    17:00 +3°C° 0 mm 1 m/s 771 mmHg 45%
    18:00 +2°C° 0 mm 1 m/s 771 mmHg 47%
    19:00 -1°C° 0 mm 2 m/s 771 mmHg 50%
    20:00 -1°C° 0 mm 2 m/s 771 mmHg 51%
    21:00 -1°C° 0 mm 2 m/s 771 mmHg 52%
    22:00 -1°C° 0 mm 3 m/s 771 mmHg 54%
    23:00 -1°C° 0 mm 3 m/s 771 mmHg 54%

    23 Fevereiro, Sábado

    Tempo Temperatura Precipitação Vento Pressão Humidade
    00:00 -2°C° 0 mm 4 m/s 771 mmHg 54%
    01:00 -2°C° 0 mm 4 m/s 771 mmHg 54%
    02:00 -2°C° 0 mm 4 m/s 771 mmHg 55%
    03:00 -2°C° 0 mm 4 m/s 770 mmHg 57%
    04:00 -2°C° 0 mm 4 m/s 770 mmHg 58%
    05:00 -2°C° 0 mm 4 m/s 770 mmHg 60%
    06:00 -2°C° 0 mm 4 m/s 769 mmHg 61%
    07:00 -2°C° 0 mm 4 m/s 769 mmHg 63%
    08:00 -1°C° 0 mm 4 m/s 769 mmHg 66%
    09:00 0°C° 0 mm 5 m/s 768 mmHg 69%
    10:00 +2°C° 0 mm 5 m/s 768 mmHg 71%
    11:00 +3°C° 0 mm 5 m/s 768 mmHg 74%
    12:00 +5°C° 0 mm 5 m/s 767 mmHg 77%
    13:00 +5°C° 0 mm 6 m/s 767 mmHg 81%
    14:00 +6°C° 0 mm 5 m/s 767 mmHg 83%
    15:00 +6°C° 0 mm 5 m/s 766 mmHg 85%
    16:00 +5°C° 0 mm 5 m/s 766 mmHg 88%
    17:00 +5°C° 0 mm 4 m/s 766 mmHg 89%
    18:00 +4°C° 0 mm 4 m/s 766 mmHg 90%
    19:00 +3°C° 0 mm 3 m/s 765 mmHg 92%
    20:00 +3°C° 0 mm 3 m/s 765 mmHg 91%
    21:00 +3°C° 0 mm 3 m/s 765 mmHg 91%
    22:00 +3°C° 0 mm 3 m/s 765 mmHg 90%
    23:00 +2°C° 0 mm 3 m/s 765 mmHg 90%
    Mostrar mais